Location: Napa Soda Springs
(38.3907°N, 122.2794°W)
Time: 08:26:09
(UTC+00:00)

ALOS - Pass Details

Date: 29 October 2020
Orbit: 684 x 684 km, 97.9° (Epoch: 02 December)

Event Time Altitude Azimuth Distance (km) Brightness Sun altitude
Rises 12:20:21 0° 18° (NNE) 3,055 5.9 -26.5°
Reaches altitude 10° 12:22:40 10° 24° (NNE) 2,135 5.1 -26.0°
Maximum altitude 12:27:11 48° 99° (E) 892 3.2 -25.2°
Drops below altitude 10° 12:31:41 10° 174° (S) 2,120 4.8 -24.3°
Sets 12:33:58 0° 180° (S) 3,031 5.6 -23.8°
